GW1572 Weather Reports


time (UTC)temp
C
wind
direction
speed
KPH
gust
KPH
rain 1hr
cm
rain 24hr
cm
rain mn
cm
humidity
%
barometer
mb
20260904215646 31 29 3.2 3.2 0.00 0.00 0.00 72 1006.4
20260904215229 31 170 0.0 1.6 0.00 0.00 0.00 73 1006.4
20260904214755 30 227 0.0 0.0 0.00 0.00 0.00 80 1006.7
20260904214339 28 155 0.0 1.6 0.00 0.00 0.00 83 1006.7
20260904213902 28 141 0.0 0.0 0.00 0.00 0.00 87 1007.1
20260904213446 27 143 0.0 0.0 0.00 0.00 0.00 88 1006.7
20260904213013 27 139 0.0 0.0 0.00 0.00 0.00 87 1006.7
20260904212556 27 141 0.0 0.0 0.00 0.00 0.00 87 1006.7
20260904212140 27 139 1.6 1.6 0.00 0.00 0.00 87 1006.7
20260904211708 27 47 1.6 1.6 0.00 0.00 0.00 87 1006.7
20260904211236 27 100 1.6 1.6 0.00 0.00 0.00 86 1006.7
20260904210331 28 148 0.0 0.0 0.00 0.00 0.00 86 1006.4
20260904205914 28 115 0.0 0.0 0.00 0.00 0.00 85 1006.4
20260904204554 29 141 0.0 0.0 0.00 0.00 0.00 81 1006.4
20260904204137 30 134 0.0 0.0 0.00 0.00 0.00 79 1006.4
20260904203650 30 136 0.0 0.0 0.00 0.00 0.00 78 1006.0
20260904202801 31 142 0.0 0.0 0.00 0.00 0.00 75 1006.0
20260904202346 31 154 0.0 1.6 0.00 0.00 0.00 72 1005.7
20260904201928 31 196 1.6 1.6 0.00 0.00 0.00 70 1006.0
20260904201512 30 122 0.0 0.0 0.00 0.00 0.00 72 1006.0
20260904200606 30 237 3.2 4.8 0.00 0.00 0.00 75 1006.4
20260904195715 31 261 8.0 9.7 0.00 0.00 0.00 73 1006.7
20260904195241 31 199 1.6 1.6 0.00 0.00 0.00 69 1007.1
20260904194810 30 175 1.6 1.6 0.00 0.00 0.00 71 1006.7
20260904194337 31 184 4.8 4.8 0.00 0.00 0.00 70 1007.1
20260904193917 30 209 1.6 1.6 0.00 0.00 0.00 71 1007.1
20260904192958 30 67 3.2 6.4 0.00 0.00 0.00 75 1007.1
20260904192545 31 25 12.9 22.5 0.00 0.00 0.00 73 1007.1
20260904192114 31 143 0.0 0.0 0.00 0.00 0.00 81 1006.7
20260904191643 31 136 0.0 0.0 0.00 0.00 0.00 81 1006.4
20260904191208 31 136 0.0 0.0 0.00 0.00 0.00 82 1006.4
20260904190752 31 135 0.0 0.0 0.00 0.00 0.00 82 1006.0
20260904190323 31 151 0.0 0.0 0.00 0.00 0.00 81 1005.7
20260904185852 32 140 0.0 0.0 0.00 0.00 0.00 79 1005.7
20260904185436 32 141 0.0 1.6 0.00 0.00 0.00 78 1006.0
20260904184531 33 122 0.0 0.0 0.00 0.00 0.00 74 1006.0
20260904184059 33 138 0.0 0.0 0.00 0.00 0.00 72 1006.0
20260904183642 34 128 0.0 0.0 0.00 0.00 0.00 70 1006.4
20260904183225 35 17 1.6 1.6 0.00 0.00 0.00 64 1006.0
20260904182809 35 168 0.0 0.0 0.00 0.00 0.00 62 1006.0
20260904182353 35 174 1.6 3.2 0.00 0.00 0.00 63 1006.0
20260904181937 35 231 3.2 4.8 0.00 0.00 0.00 61 1006.0
20260904181505 35 242 4.8 4.8 0.00 0.00 0.00 63 1006.0
20260904181048 35 195 9.7 11.3 0.00 0.00 0.00 61 1006.0
20260904180616 35 131 4.8 4.8 0.00 0.00 0.00 61 1006.0
20260904180128 35 249 6.4 6.4 0.00 0.00 0.00 60 1006.4
20260904175656 35 221 3.2 3.2 0.00 0.00 0.00 63 1006.4
20260904175224 35 210 1.6 1.6 0.00 0.00 0.00 61 1006.7
20260904174806 35 268 4.8 4.8 0.00 0.00 0.00 65 1006.4
20260904173411 34 220 8.0 9.7 0.00 0.00 0.00 62 1007.1
20260904172505 35 215 1.6 1.6 0.00 0.00 0.00 65 1007.1
20260904172047 34 189 1.6 1.6 0.00 0.00 0.00 65 1007.4
20260904171629 34 192 3.2 3.2 0.00 0.00 0.00 67 1007.4
20260904170712 36 215 1.6 3.2 0.00 0.00 0.00 66 1007.4
20260904170253 35 165 0.0 0.0 0.00 0.00 0.00 64 1007.4
20260904165836 34 332 3.2 4.8 0.00 0.00 0.00 66 1007.4
20260904164949 35 208 1.6 3.2 0.00 0.00 0.00 69 1007.7
20260904164532 34 193 0.0 1.6 0.00 0.00 0.00 67 1007.7
20260904164115 34 129 0.0 1.6 0.00 0.00 0.00 67 1007.4
20260904163644 34 157 3.2 3.2 0.00 0.00 0.00 68 1007.4
20260904163227 34 177 0.0 0.0 0.00 0.00 0.00 72 1007.4
20260904162809 33 193 3.2 3.2 0.00 0.00 0.00 69 1007.7
20260904162337 33 160 0.0 1.6 0.00 0.00 0.00 70 1007.7
20260904161921 33 181 3.2 3.2 0.00 0.00 0.00 72 1007.7
20260904161033 33 163 3.2 3.2 0.00 0.00 0.00 74 1007.7
20260904160617 33 98 1.6 1.6 0.00 0.00 0.00 72 1007.7
20260904160202 33 192 1.6 1.6 0.00 0.00 0.00 74 1008.1
20260904155746 33 54 1.6 1.6 0.00 0.00 0.00 73 1007.7
20260904155328 33 221 1.6 1.6 0.00 0.00 0.00 76 1007.7
20260904154911 32 149 0.0 0.0 0.00 0.00 0.00 73 1008.1
20260904154454 32 192 1.6 1.6 0.00 0.00 0.00 78 1008.1
20260904154023 32 180 0.0 1.6 0.00 0.00 0.00 75 1007.7
20260904153607 32 184 1.6 1.6 0.00 0.00 0.00 77 1008.1
20260904153149 32 180 1.6 1.6 0.00 0.00 0.00 75 1008.1
20260904152247 32 158 1.6 1.6 0.00 0.00 0.00 77 1007.7
20260904151827 31 132 0.0 0.0 0.00 0.00 0.00 77 1007.7
20260904151409 31 162 0.0 0.0 0.00 0.00 0.00 77 1007.7
20260904150951 31 180 1.6 1.6 0.00 0.00 0.00 78 1007.7
20260904150536 31 169 1.6 1.6 0.00 0.00 0.00 83 1007.7
20260904150120 30 169 0.0 1.6 0.00 0.00 0.00 81 1008.1
20260904145230 30 147 0.0 0.0 0.00 0.00 0.00 86 1007.7
20260904144758 29 143 1.6 1.6 0.00 0.00 0.00 86 1008.1
20260904144328 29 199 1.6 1.6 0.00 0.00 0.00 88 1008.1
20260904143854 28 145 0.0 0.0 0.00 0.00 0.00 90 1008.1
20260904143437 28 169 0.0 0.0 0.00 0.00 0.00 91 1007.7
20260904143006 28 164 1.6 1.6 0.00 0.00 0.00 93 1007.7
20260904142549 27 162 0.0 0.0 0.00 0.00 0.00 94 1008.1
20260904141703 27 181 1.6 1.6 0.00 0.00 0.00 94 1007.7
20260904141247 27 174 1.6 1.6 0.00 0.00 0.00 94 1007.7
20260904140832 27 148 0.0 0.0 0.00 0.00 0.00 95 1008.1
20260904140416 27 164 1.6 1.6 0.00 0.00 0.00 96 1007.7
20260904135958 26 148 0.0 1.6 0.00 0.00 0.00 97 1008.1
20260904135540 26 161 0.0 1.6 0.00 0.00 0.00 97 1008.1
20260904135123 26 176 0.0 1.6 0.00 0.00 0.00 97 1007.7
20260904134706 26 153 0.0 0.0 0.00 0.00 0.00 98 1008.1
20260904134235 26 181 0.0 0.0 0.00 0.00 0.00 98 1008.1
20260904133802 26 157 0.0 1.6 0.00 0.00 0.00 99 1008.1
20260904133346 25 177 1.6 1.6 0.00 0.00 0.00 99 1008.4
20260904132928 25 47 1.6 1.6 0.00 0.00 0.00 99 1007.7
20260904132042 25 115 0.0 0.0 0.00 0.00 0.00 99 1008.1
20260904131611 25 167 0.0 1.6 0.00 0.00 0.00 99 1008.1
20260904131155 24 143 0.0 0.0 0.00 0.00 0.00 99 1008.1
20260904130307 24 152 0.0 0.0 0.00 0.00 0.00 99 1008.1
20260904125419 23 147 0.0 0.0 0.00 0.00 0.00 99 1008.4
20260904125004 23 147 0.0 0.0 0.00 0.00 0.00 99 1008.1
20260904123217 23 137 0.0 0.0 0.00 0.00 0.00 99 1008.1
20260904122801 23 129 0.0 0.0 0.00 0.00 0.00 99 1008.1
20260904121902 22 128 0.0 0.0 0.00 0.00 0.00 99 1007.7
20260904121448 22 127 0.0 0.0 0.00 0.00 0.00 99 1007.7
20260904121034 22 142 0.0 0.0 0.00 0.00 0.00 99 1007.7
20260904120618 22 139 0.0 0.0 0.00 0.00 0.00 99 1007.7
20260904120201 22 137 0.0 0.0 0.00 0.00 0.00 99 1007.7
20260904115745 22 130 0.0 0.0 0.00 0.00 0.00 99 1007.7
20260904115331 22 130 0.0 0.0 0.00 0.00 0.00 99 1007.7
20260904114917 22 130 0.0 0.0 0.00 0.00 0.00 99 1007.7
20260904114502 22 141 0.0 0.0 0.00 0.00 0.00 99 1007.7
20260904113616 22 143 0.0 0.0 0.00 0.00 0.00 99 1007.7
20260904113201 22 143 0.0 0.0 0.00 0.00 0.00 99 1007.7
20260904112745 22 143 0.0 0.0 0.00 0.00 0.00 99 1007.7
20260904112329 22 143 0.0 0.0 0.00 0.00 0.00 99 1007.4
20260904111913 22 143 0.0 0.0 0.00 0.00 0.00 99 1007.7
20260904111457 22 143 0.0 0.0 0.00 0.00 0.00 99 1007.4
20260904111042 22 142 0.0 0.0 0.00 0.00 0.00 99 1007.7
20260904110626 22 142 0.0 0.0 0.00 0.00 0.00 99 1007.7
20260904110211 22 142 0.0 0.0 0.00 0.00 0.00 99 1007.7
20260904105308 22 143 0.0 0.0 0.00 0.00 0.00 99 1007.4
20260904104421 22 143 0.0 0.0 0.00 0.00 0.00 99 1007.4
20260904103950 22 143 0.0 0.0 0.00 0.00 0.00 99 1007.4
20260904103521 22 142 0.0 0.0 0.00 0.00 0.00 99 1007.4
20260904103105 22 142 0.0 0.0 0.00 0.00 0.00 99 1007.1
20260904102634 22 142 0.0 0.0 0.00 0.00 0.00 99 1007.1
20260904102220 22 142 0.0 0.0 0.00 0.00 0.00 99 1007.1
20260904101802 22 142 0.0 0.0 0.00 0.00 0.00 99 1007.7
20260904101347 22 142 0.0 0.0 0.00 0.00 0.00 99 1007.4
20260904100932 22 142 0.0 0.0 0.00 0.00 0.00 99 1007.4
20260904100517 22 142 0.0 0.0 0.00 0.00 0.00 99 1007.4
20260904095617 22 142 0.0 0.0 0.00 0.00 0.00 99 1007.4
20260904095159 22 142 0.0 0.0 0.00 0.00 0.00 99 1007.1
20260904094744 22 142 0.0 0.0 0.00 0.00 0.00 99 1007.1
20260904093843 22 142 0.0 0.0 0.00 0.00 0.00 99 1007.1
20260904092952 22 142 0.0 0.0 0.00 0.00 0.00 99 1007.1
20260904092036 22 142 0.0 0.0 0.00 0.00 0.00 99 1007.1
20260904091120 22 142 0.0 0.0 0.00 0.00 0.00 99 1007.1
20260904090704 22 142 0.0 0.0 0.00 0.00 0.00 99 1007.4
20260904090250 22 142 0.0 0.0 0.00 0.00 0.00 99 1007.1
20260904085834 22 139 0.0 0.0 0.00 0.00 0.00 99 1007.1
20260904085419 22 139 0.0 0.0 0.00 0.00 0.00 99 1007.1
20260904085003 22 138 0.0 0.0 0.00 0.00 0.00 99 1007.1
20260904084533 22 138 0.0 0.0 0.00 0.00 0.00 99 1007.1
20260904084118 22 125 0.0 0.0 0.00 0.00 0.00 99 1007.1
20260904083648 22 125 0.0 0.0 0.00 0.00 0.00 99 1006.7
20260904083234 22 125 0.0 0.0 0.00 0.00 0.00 99 1007.1
20260904082816 23 126 0.0 0.0 0.00 0.00 0.00 99 1007.1
20260904082347 22 132 0.0 0.0 0.00 0.00 0.00 99 1006.7
20260904081930 22 136 0.0 0.0 0.00 0.00 0.00 99 1006.7
20260904081502 22 135 0.0 0.0 0.00 0.00 0.00 99 1006.7
20260904081048 22 135 0.0 0.0 0.00 0.00 0.00 99 1006.7
20260904080617 23 134 0.0 0.0 0.00 0.00 0.00 99 1006.7
20260904075730 23 143 0.0 0.0 0.00 0.00 0.00 99 1007.1
20260904075314 23 143 0.0 0.0 0.00 0.00 0.00 99 1006.7
20260904074858 23 142 0.0 0.0 0.00 0.00 0.00 99 1007.1
20260904074443 23 142 0.0 0.0 0.00 0.00 0.00 99 1006.7
20260904074012 23 142 0.0 0.0 0.00 0.00 0.00 99 1006.7
20260904073539 23 142 0.0 0.0 0.00 0.00 0.00 99 1006.7
20260904073108 23 130 0.0 0.0 0.00 0.00 0.00 99 1007.1
20260904072654 23 135 0.0 0.0 0.00 0.00 0.00 99 1006.7
20260904072238 23 142 0.0 0.0 0.00 0.00 0.00 99 1007.1
20260904071824 23 136 0.0 0.0 0.00 0.00 0.00 99 1007.1
20260904071406 23 136 0.0 0.0 0.00 0.00 0.00 99 1007.1
20260904070951 23 122 0.0 0.0 0.00 0.00 0.00 99 1007.1
20260904070535 23 143 0.0 0.0 0.00 0.00 0.00 99 1007.1
20260904070120 23 142 0.0 0.0 0.00 0.00 0.00 99 1007.1
20260904065233 23 138 0.0 0.0 0.00 0.00 0.00 99 1007.1
20260904064815 23 124 0.0 0.0 0.00 0.00 0.00 99 1007.1
20260904064358 23 130 0.0 0.0 0.00 0.00 0.00 99 1007.1
20260904063941 23 136 0.0 0.0 0.00 0.00 0.00 99 1007.1
20260904063525 23 135 0.0 0.0 0.00 0.00 0.00 99 1007.1
20260904063053 23 129 0.0 0.0 0.00 0.00 0.00 99 1007.1
20260904062622 23 117 0.0 0.0 0.00 0.00 0.00 99 1007.1
20260904062207 23 135 0.0 0.0 0.00 0.00 0.00 99 1007.1
20260904061751 23 142 0.0 0.0 0.00 0.00 0.00 99 1007.1
20260904061336 23 142 0.0 0.0 0.00 0.00 0.00 99 1007.1
20260904060450 23 142 0.0 0.0 0.00 0.00 0.00 99 1007.4
20260904060019 23 142 0.0 0.0 0.00 0.00 0.00 99 1007.4
20260904055603 23 140 0.0 0.0 0.00 0.00 0.00 99 1007.4
20260904054717 24 144 0.0 0.0 0.00 0.00 0.00 99 1007.4
20260904053815 24 132 0.0 0.0 0.00 0.00 0.00 99 1007.4
20260904053359 24 116 0.0 0.0 0.00 0.00 0.00 99 1007.4
20260904052927 24 156 0.0 1.6 0.00 0.00 0.00 99 1007.4
20260904052418 24 145 0.0 0.0 0.00 0.00 0.00 99 1007.7
20260904051842 24 144 0.0 0.0 0.00 0.00 0.00 99 1007.7
20260904051213 24 144 0.0 0.0 0.00 0.00 0.00 99 1007.4
20260904050645 24 144 0.0 0.0 0.00 0.00 0.00 99 1007.4
20260904050034 24 144 0.0 0.0 0.00 0.00 0.00 99 1007.7
20260904044826 24 143 0.0 0.0 0.00 0.00 0.00 99 1007.4
20260904044248 25 135 0.0 0.0 0.00 0.00 0.00 99 1007.4
20260904043619 25 136 0.0 0.0 0.00 0.00 0.00 99 1007.7
20260904043026 25 143 0.0 0.0 0.00 0.00 0.00 99 1007.4
20260904041823 25 141 0.0 0.0 0.00 0.00 0.00 99 1007.4
20260904041219 25 141 0.0 0.0 0.00 0.00 0.00 99 1007.4
20260904040620 25 133 0.0 0.0 0.00 0.00 0.00 99 1007.1
20260904040025 25 135 0.0 0.0 0.00 0.00 0.00 99 1007.1
20260904034217 25 141 0.0 0.0 0.00 0.00 0.00 99 1007.1
20260904033614 25 113 0.0 0.0 0.00 0.00 0.00 99 1007.1
20260904032426 25 144 0.0 0.0 0.00 0.00 0.00 99 1007.4
20260904031807 25 140 0.0 0.0 0.00 0.00 0.00 99 1007.4
20260904031220 25 135 0.0 0.0 0.00 0.00 0.00 99 1007.1
20260904030630 25 135 0.0 0.0 0.00 0.00 0.00 99 1007.1
20260904030036 26 130 0.0 0.0 0.00 0.00 0.00 99 1007.4
20260904025411 26 139 0.0 0.0 0.00 0.00 0.00 99 1007.1
20260904024825 26 124 0.0 0.0 0.00 0.00 0.00 99 1007.1
20260904024224 26 71 0.0 1.6 0.00 0.00 0.00 99 1007.4
20260904023042 26 140 0.0 0.0 0.00 0.00 0.00 99 1007.1
20260904022433 26 126 0.0 0.0 0.00 0.00 0.00 99 1007.4
20260904021206 26 125 0.0 0.0 0.00 0.00 0.00 98 1007.4
20260904020642 26 132 0.0 0.0 0.00 0.00 0.00 98 1007.4
20260904020022 26 132 0.0 0.0 0.00 0.00 0.00 98 1007.4
20260904015423 26 131 0.0 0.0 0.00 0.00 0.00 98 1007.4
20260904014240 26 125 0.0 0.0 0.00 0.00 0.00 97 1007.4
20260904013613 27 128 0.0 0.0 0.00 0.00 0.00 97 1007.4
20260904013043 27 133 0.0 0.0 0.00 0.00 0.00 97 1007.4
20260904012419 27 133 0.0 0.0 0.00 0.00 0.00 97 1007.1
20260904011825 27 132 0.0 0.0 0.00 0.00 0.00 96 1007.1
20260904010009 27 139 0.0 0.0 0.00 0.00 0.00 95 1007.1
20260904005444 27 133 0.0 0.0 0.00 0.00 0.00 95 1007.1
20260904004806 27 126 0.0 0.0 0.00 0.00 0.00 94 1007.1
20260904004242 27 125 0.0 0.0 0.00 0.00 0.00 94 1006.7
20260904002445 28 142 0.0 0.0 0.00 0.00 0.00 92 1006.7
20260904001848 28 142 0.0 0.0 0.00 0.00 0.00 91 1006.4
20260904001236 28 142 0.0 0.0 0.00 0.00 0.00 91 1006.4
20260904000641 28 148 0.0 0.0 0.00 0.00 0.00 90 1006.4
20260904000015 29 131 0.0 0.0 0.00 0.00 0.00 90 1006.7
20260903235440 29 141 0.0 0.0 0.00 0.00 0.00 89 1006.4
20260903234828 30 141 0.0 0.0 0.00 0.00 0.00 89 1006.4
20260903234218 30 139 0.0 0.0 0.00 0.00 0.00 87 1006.7
20260903233618 30 139 0.0 0.0 0.00 0.00 0.00 86 1006.7
20260903232431 31 125 0.0 0.0 0.00 0.00 0.00 81 1006.7
20260903231236 34 144 0.0 0.0 0.00 0.00 0.00 74 1006.4
20260903230034 35 150 0.0 0.0 0.00 0.00 0.00 70 1006.0
20260903225421 35 149 0.0 0.0 0.00 0.00 0.00 69 1006.0
20260903224821 36 141 0.0 0.0 0.00 0.00 0.00 68 1006.0
20260903224246 36 134 0.0 0.0 0.00 0.00 0.00 67 1006.0
20260903221840 36 172 0.0 0.0 0.00 0.00 0.00 65 1005.7
20260903221234 36 150 1.6 1.6 0.00 0.00 0.00 67 1005.7
20260903220619 36 158 0.0 1.6 0.00 0.00 0.00 68 1005.7